Location: Overspoor
(51.4747°N, 5.6641°E)
Time: 15:30:52
(UTC+02:00)

RS-15 - Pass Details

Date: 26 June 2022
Orbit: 1881 x 2163 km, 64.8° (Epoch: 13 August)

Event Time Altitude Azimuth Distance (km) Brightness Sun altitude
Rises 00:16:43 0° 309° (NW) 5,682 11.5 -12.9°
Reaches altitude 10° 00:20:16 10° 313° (NW) 4,687 11.0 -13.1°
Maximum altitude 00:32:36 63° 34° (NE) 2,352 8.6 -13.7°
Drops below altitude 10° 00:44:39 10° 115° (ESE) 4,595 9.6 -14.2°
Sets 00:48:05 0° 119° (ESE) 5,565 10.0 -14.3°
